Location: Grand Lay
(47.3253°N, 0.9468°E)
Time: 09:12:38
(UTC+00:00)

BREEZE-M DEB (TANK) - Pass Details

Date: 18 January 2026
Orbit: 290 x 14649 km, 49.5° (Epoch: 14 February)

Event Time Altitude Azimuth Distance (km) Brightness Sun altitude
Rises 03:05:29 0° 282° (WNW) 14,202 9.1 -45.2°
Enters shadow 03:16:17 - 284° (WNW) 11,678 8.6 -43.4°
Exits shadow 03:48:56 73° 123° (ESE) 1,540 4.4 -38.1°
Drops below altitude 10° 03:53:20 10° 114° (ESE) 2,459 6.1 -37.3°
Sets 03:54:45 0° 113° (ESE) 3,030 6.8 -37.1°
